Data supplied by UK-AIR on 31/3/2012
All Data GMT hour ending 
Status: R =Ratified P=Provisional,P*=As supplied
,,Sheffield Tinsley,,,,,,,,,,,,,,,,,,,,,,,
Date,time,"Nitric oxide",status,unit,"Nitrogen dioxide",status,unit,"Nitrogen oxides as nitrogen dioxide",status,unit
 
01-01-2011,01:00,0,R,ugm-3,17,R,ugm-3,17,R,ugm-3
01-01-2011,02:00,0,R,ugm-3,15,R,ugm-3,15,R,ugm-3
01-01-2011,03:00,0,R,ugm-3,15,R,ugm-3,15,R,ugm-3
01-01-2011,04:00,0,R,ugm-3,8,R,ugm-3,8,R,ugm-3
01-01-2011,05:00,0,R,ugm-3,8,R,ugm-3,8,R,ugm-3
01-01-2011,06:00,0,R,ugm-3,8,R,ugm-3,8,R,ugm-3
01-01-2011,07:00,0,R,ugm-3,11,R,ugm-3,11,R,ugm-3
01-01-2011,08:00,0,R,ugm-3,10,R,ugm-3,10,R,ugm-3
01-01-2011,09:00,0,R,ugm-3,10,R,ugm-3,10,R,ugm-3
01-01-2011,10:00,0,R,ugm-3,11,R,ugm-3,11,R,ugm-3
01-01-2011,11:00,0,R,ugm-3,8,R,ugm-3,8,R,ugm-3
01-01-2011,12:00,1,R,ugm-3,13,R,ugm-3,15,R,ugm-3
01-01-2011,13:00,1,R,ugm-3,13,R,ugm-3,15,R,ugm-3
01-01-2011,14:00,1,R,ugm-3,13,R,ugm-3,15,R,ugm-3
01-01-2011,15:00,3,R,ugm-3,25,R,ugm-3,29,R,ugm-3
01-01-2011,16:00,1,R,ugm-3,23,R,ugm-3,25,R,ugm-3
01-01-2011,17:00,1,R,ugm-3,21,R,ugm-3,23,R,ugm-3
01-01-2011,18:00,3,R,ugm-3,31,R,ugm-3,34,R,ugm-3
01-01-2011,19:00,3,R,ugm-3,31,R,ugm-3,34,R,ugm-3
01-01-2011,20:00,3,R,ugm-3,32,R,ugm-3,36,R,ugm-3
01-01-2011,21:00,3,R,ugm-3,29,R,ugm-3,32,R,ugm-3
01-01-2011,22:00,1,R,ugm-3,25,R,ugm-3,27,R,ugm-3
01-01-2011,23:00,1,R,ugm-3,21,R,ugm-3,23,R,ugm-3
01-01-2011,24:00,1,R,ugm-3,21,R,ugm-3,23,R,ugm-3
02-01-2011,01:00,1,R,ugm-3,21,R,ugm-3,23,R,ugm-3
02-01-2011,02:00,1,R,ugm-3,13,R,ugm-3,15,R,ugm-3
02-01-2011,03:00,0,R,ugm-3,13,R,ugm-3,13,R,ugm-3
02-01-2011,04:00,1,R,ugm-3,8,R,ugm-3,10,R,ugm-3
02-01-2011,05:00,1,R,ugm-3,10,R,ugm-3,11,R,ugm-3
02-01-2011,06:00,1,R,ugm-3,15,R,ugm-3,17,R,ugm-3
02-01-2011,07:00,1,R,ugm-3,19,R,ugm-3,21,R,ugm-3
02-01-2011,08:00,1,R,ugm-3,15,R,ugm-3,17,R,ugm-3
02-01-2011,09:00,3,R,ugm-3,29,R,ugm-3,32,R,ugm-3
02-01-2011,10:00,6,R,ugm-3,42,R,ugm-3,52,R,ugm-3
02-01-2011,11:00,6,R,ugm-3,40,R,ugm-3,50,R,ugm-3
02-01-2011,12:00,5,R,ugm-3,34,R,ugm-3,42,R,ugm-3
02-01-2011,13:00,6,R,ugm-3,32,R,ugm-3,42,R,ugm-3
02-01-2011,14:00,4,R,ugm-3,32,R,ugm-3,38,R,ugm-3
02-01-2011,15:00,5,R,ugm-3,40,R,ugm-3,48,R,ugm-3
02-01-2011,16:00,8,R,ugm-3,52,R,ugm-3,63,R,ugm-3
02-01-2011,17:00,30,R,ugm-3,78,R,ugm-3,124,R,ugm-3
02-01-2011,18:00,20,R,ugm-3,69,R,ugm-3,99,R,ugm-3
02-01-2011,19:00,13,R,ugm-3,65,R,ugm-3,84,R,ugm-3
02-01-2011,20:00,10,R,ugm-3,57,R,ugm-3,73,R,ugm-3
02-01-2011,21:00,9,R,ugm-3,55,R,ugm-3,69,R,ugm-3
02-01-2011,22:00,15,R,ugm-3,69,R,ugm-3,92,R,ugm-3
02-01-2011,23:00,8,R,ugm-3,55,R,ugm-3,67,R,ugm-3
02-01-2011,24:00,5,R,ugm-3,40,R,ugm-3,48,R,ugm-3
03-01-2011,01:00,1,R,ugm-3,34,R,ugm-3,36,R,ugm-3
03-01-2011,02:00,3,R,ugm-3,44,R,ugm-3,48,R,ugm-3
03-01-2011,03:00,11,R,ugm-3,57,R,ugm-3,74,R,ugm-3
03-01-2011,04:00,19,R,ugm-3,61,R,ugm-3,90,R,ugm-3
03-01-2011,05:00,18,R,ugm-3,52,R,ugm-3,78,R,ugm-3
03-01-2011,06:00,51,R,ugm-3,53,R,ugm-3,132,R,ugm-3
03-01-2011,07:00,46,R,ugm-3,57,R,ugm-3,128,R,ugm-3
03-01-2011,08:00,23,R,ugm-3,65,R,ugm-3,99,R,ugm-3
03-01-2011,09:00,25,R,ugm-3,71,R,ugm-3,109,R,ugm-3
03-01-2011,10:00,20,R,ugm-3,63,R,ugm-3,94,R,ugm-3
03-01-2011,11:00,20,R,ugm-3,63,R,ugm-3,94,R,ugm-3
03-01-2011,12:00,23,R,ugm-3,63,R,ugm-3,97,R,ugm-3
03-01-2011,13:00,15,R,ugm-3,46,R,ugm-3,69,R,ugm-3
03-01-2011,14:00,18,R,ugm-3,57,R,ugm-3,84,R,ugm-3
03-01-2011,15:00,21,R,ugm-3,61,R,ugm-3,94,R,ugm-3
03-01-2011,16:00,31,R,ugm-3,80,R,ugm-3,128,R,ugm-3
03-01-2011,17:00,28,R,ugm-3,73,R,ugm-3,115,R,ugm-3
03-01-2011,18:00,56,R,ugm-3,90,R,ugm-3,176,R,ugm-3
03-01-2011,19:00,84,R,ugm-3,96,R,ugm-3,223,R,ugm-3
03-01-2011,20:00,70,R,ugm-3,86,R,ugm-3,193,R,ugm-3
03-01-2011,21:00,54,R,ugm-3,84,R,ugm-3,166,R,ugm-3
03-01-2011,22:00,30,R,ugm-3,69,R,ugm-3,115,R,ugm-3
03-01-2011,23:00,34,R,ugm-3,69,R,ugm-3,120,R,ugm-3
03-01-2011,24:00,8,R,ugm-3,34,R,ugm-3,46,R,ugm-3
04-01-2011,01:00,4,R,ugm-3,31,R,ugm-3,36,R,ugm-3
04-01-2011,02:00,8,R,ugm-3,44,R,ugm-3,55,R,ugm-3
04-01-2011,03:00,4,R,ugm-3,27,R,ugm-3,32,R,ugm-3
04-01-2011,04:00,3,R,ugm-3,27,R,ugm-3,31,R,ugm-3
04-01-2011,05:00,6,R,ugm-3,31,R,ugm-3,40,R,ugm-3
04-01-2011,06:00,10,R,ugm-3,36,R,ugm-3,52,R,ugm-3
04-01-2011,07:00,8,R,ugm-3,42,R,ugm-3,53,R,ugm-3
04-01-2011,08:00,24,R,ugm-3,59,R,ugm-3,96,R,ugm-3
04-01-2011,09:00,28,R,ugm-3,65,R,ugm-3,107,R,ugm-3
04-01-2011,10:00,28,R,ugm-3,50,R,ugm-3,92,R,ugm-3
04-01-2011,11:00,26,R,ugm-3,44,R,ugm-3,84,R,ugm-3
04-01-2011,12:00,31,R,ugm-3,50,R,ugm-3,97,R,ugm-3
04-01-2011,13:00,26,R,ugm-3,46,R,ugm-3,86,R,ugm-3
04-01-2011,14:00,23,R,ugm-3,48,R,ugm-3,82,R,ugm-3
04-01-2011,15:00,23,R,ugm-3,46,R,ugm-3,80,R,ugm-3
04-01-2011,16:00,20,R,ugm-3,46,R,ugm-3,76,R,ugm-3
04-01-2011,17:00,18,R,ugm-3,42,R,ugm-3,69,R,ugm-3
04-01-2011,18:00,18,R,ugm-3,44,R,ugm-3,71,R,ugm-3
04-01-2011,19:00,18,R,ugm-3,42,R,ugm-3,69,R,ugm-3
04-01-2011,20:00,14,R,ugm-3,40,R,ugm-3,61,R,ugm-3
04-01-2011,21:00,8,R,ugm-3,31,R,ugm-3,42,R,ugm-3
04-01-2011,22:00,6,R,ugm-3,27,R,ugm-3,36,R,ugm-3
04-01-2011,23:00,5,R,ugm-3,21,R,ugm-3,29,R,ugm-3
04-01-2011,24:00,4,R,ugm-3,17,R,ugm-3,23,R,ugm-3
05-01-2011,01:00,3,R,ugm-3,13,R,ugm-3,17,R,ugm-3
05-01-2011,02:00,3,R,ugm-3,10,R,ugm-3,13,R,ugm-3
05-01-2011,03:00,3,R,ugm-3,11,R,ugm-3,15,R,ugm-3
05-01-2011,04:00,3,R,ugm-3,10,R,ugm-3,13,R,ugm-3
05-01-2011,05:00,4,R,ugm-3,13,R,ugm-3,19,R,ugm-3
05-01-2011,06:00,8,R,ugm-3,21,R,ugm-3,32,R,ugm-3
05-01-2011,07:00,16,R,ugm-3,34,R,ugm-3,59,R,ugm-3
05-01-2011,08:00,28,R,ugm-3,50,R,ugm-3,92,R,ugm-3
05-01-2011,09:00,46,R,ugm-3,67,R,ugm-3,138,R,ugm-3
05-01-2011,10:00,48,R,ugm-3,65,R,ugm-3,138,R,ugm-3
05-01-2011,11:00,50,R,ugm-3,69,R,ugm-3,145,R,ugm-3
05-01-2011,12:00,30,R,ugm-3,52,R,ugm-3,97,R,ugm-3
05-01-2011,13:00,23,R,ugm-3,42,R,ugm-3,76,R,ugm-3
05-01-2011,14:00,26,R,ugm-3,48,R,ugm-3,88,R,ugm-3
05-01-2011,15:00,33,R,ugm-3,57,R,ugm-3,107,R,ugm-3
05-01-2011,16:00,33,R,ugm-3,59,R,ugm-3,109,R,ugm-3
05-01-2011,17:00,53,R,ugm-3,74,R,ugm-3,155,R,ugm-3
05-01-2011,18:00,48,R,ugm-3,74,R,ugm-3,147,R,ugm-3
05-01-2011,19:00,40,R,ugm-3,69,R,ugm-3,130,R,ugm-3
05-01-2011,20:00,21,R,ugm-3,53,R,ugm-3,86,R,ugm-3
05-01-2011,21:00,11,R,ugm-3,40,R,ugm-3,57,R,ugm-3
05-01-2011,22:00,9,R,ugm-3,31,R,ugm-3,44,R,ugm-3
05-01-2011,23:00,10,R,ugm-3,44,R,ugm-3,59,R,ugm-3
05-01-2011,24:00,8,R,ugm-3,38,R,ugm-3,50,R,ugm-3
06-01-2011,01:00,3,R,ugm-3,27,R,ugm-3,31,R,ugm-3
06-01-2011,02:00,13,R,ugm-3,42,R,ugm-3,61,R,ugm-3
06-01-2011,03:00,5,R,ugm-3,42,R,ugm-3,50,R,ugm-3
06-01-2011,04:00,3,R,ugm-3,25,R,ugm-3,29,R,ugm-3
06-01-2011,05:00,18,R,ugm-3,57,R,ugm-3,84,R,ugm-3
06-01-2011,06:00,35,R,ugm-3,67,R,ugm-3,120,R,ugm-3
06-01-2011,07:00,65,R,ugm-3,78,R,ugm-3,178,R,ugm-3
06-01-2011,08:00,106,R,ugm-3,101,R,ugm-3,264,R,ugm-3
06-01-2011,09:00,106,R,ugm-3,103,R,ugm-3,265,R,ugm-3
06-01-2011,10:00,76,R,ugm-3,92,R,ugm-3,208,R,ugm-3
06-01-2011,11:00,88,R,ugm-3,88,R,ugm-3,222,R,ugm-3
06-01-2011,12:00,71,R,ugm-3,84,R,ugm-3,193,R,ugm-3
06-01-2011,13:00,56,R,ugm-3,80,R,ugm-3,166,R,ugm-3
06-01-2011,14:00,34,R,ugm-3,69,R,ugm-3,120,R,ugm-3
06-01-2011,15:00,35,R,ugm-3,73,R,ugm-3,126,R,ugm-3
06-01-2011,16:00,28,R,ugm-3,73,R,ugm-3,115,R,ugm-3
06-01-2011,17:00,14,R,ugm-3,65,R,ugm-3,86,R,ugm-3
06-01-2011,18:00,16,R,ugm-3,71,R,ugm-3,96,R,ugm-3
06-01-2011,19:00,9,R,ugm-3,61,R,ugm-3,74,R,ugm-3
06-01-2011,20:00,3,R,ugm-3,36,R,ugm-3,40,R,ugm-3
06-01-2011,21:00,3,R,ugm-3,31,R,ugm-3,34,R,ugm-3
06-01-2011,22:00,3,R,ugm-3,44,R,ugm-3,48,R,ugm-3
06-01-2011,23:00,8,R,ugm-3,55,R,ugm-3,67,R,ugm-3
06-01-2011,24:00,6,R,ugm-3,59,R,ugm-3,69,R,ugm-3
07-01-2011,01:00,8,R,ugm-3,63,R,ugm-3,74,R,ugm-3
07-01-2011,02:00,38,R,ugm-3,74,R,ugm-3,132,R,ugm-3
07-01-2011,03:00,63,R,ugm-3,76,R,ugm-3,172,R,ugm-3
07-01-2011,04:00,25,R,ugm-3,61,R,ugm-3,99,R,ugm-3
07-01-2011,05:00,6,R,ugm-3,55,R,ugm-3,65,R,ugm-3
07-01-2011,06:00,11,R,ugm-3,55,R,ugm-3,73,R,ugm-3
07-01-2011,07:00,16,R,ugm-3,59,R,ugm-3,84,R,ugm-3
07-01-2011,08:00,36,R,ugm-3,67,R,ugm-3,122,R,ugm-3
07-01-2011,09:00,59,R,ugm-3,74,R,ugm-3,164,R,ugm-3
07-01-2011,10:00,66,R,ugm-3,76,R,ugm-3,178,R,ugm-3
07-01-2011,11:00,65,R,ugm-3,74,R,ugm-3,174,R,ugm-3
07-01-2011,12:00,13,R,ugm-3,42,R,ugm-3,61,R,ugm-3
07-01-2011,13:00,34,R,ugm-3,65,R,ugm-3,117,R,ugm-3
07-01-2011,14:00,34,R,ugm-3,67,R,ugm-3,118,R,ugm-3
07-01-2011,15:00,30,R,ugm-3,69,R,ugm-3,115,R,ugm-3
07-01-2011,16:00,55,R,ugm-3,80,R,ugm-3,164,R,ugm-3
07-01-2011,17:00,41,R,ugm-3,78,R,ugm-3,141,R,ugm-3
07-01-2011,18:00,115,R,ugm-3,103,R,ugm-3,279,R,ugm-3
07-01-2011,19:00,104,R,ugm-3,96,R,ugm-3,254,R,ugm-3
07-01-2011,20:00,104,R,ugm-3,90,R,ugm-3,248,R,ugm-3
07-01-2011,21:00,108,R,ugm-3,90,R,ugm-3,254,R,ugm-3
07-01-2011,22:00,115,R,ugm-3,86,R,ugm-3,262,R,ugm-3
07-01-2011,23:00,86,R,ugm-3,73,R,ugm-3,204,R,ugm-3
07-01-2011,24:00,89,R,ugm-3,73,R,ugm-3,208,R,ugm-3
08-01-2011,01:00,56,R,ugm-3,67,R,ugm-3,153,R,ugm-3
08-01-2011,02:00,11,R,ugm-3,59,R,ugm-3,76,R,ugm-3
08-01-2011,03:00,4,R,ugm-3,48,R,ugm-3,53,R,ugm-3
08-01-2011,04:00,3,R,ugm-3,27,R,ugm-3,31,R,ugm-3
08-01-2011,05:00,4,R,ugm-3,42,R,ugm-3,48,R,ugm-3
08-01-2011,06:00,3,R,ugm-3,34,R,ugm-3,38,R,ugm-3
08-01-2011,07:00,39,R,ugm-3,65,R,ugm-3,124,R,ugm-3
08-01-2011,08:00,86,R,ugm-3,82,R,ugm-3,214,R,ugm-3
08-01-2011,09:00,13,R,ugm-3,53,R,ugm-3,73,R,ugm-3
08-01-2011,10:00,9,R,ugm-3,27,R,ugm-3,40,R,ugm-3
08-01-2011,11:00,10,R,ugm-3,21,R,ugm-3,36,R,ugm-3
08-01-2011,12:00,10,R,ugm-3,23,R,ugm-3,38,R,ugm-3
08-01-2011,13:00,10,R,ugm-3,27,R,ugm-3,42,R,ugm-3
08-01-2011,14:00,9,R,ugm-3,25,R,ugm-3,38,R,ugm-3
08-01-2011,15:00,10,R,ugm-3,32,R,ugm-3,48,R,ugm-3
08-01-2011,16:00,9,R,ugm-3,32,R,ugm-3,46,R,ugm-3
08-01-2011,17:00,9,R,ugm-3,38,R,ugm-3,52,R,ugm-3
08-01-2011,18:00,8,R,ugm-3,25,R,ugm-3,36,R,ugm-3
08-01-2011,19:00,8,R,ugm-3,32,R,ugm-3,44,R,ugm-3
08-01-2011,20:00,5,R,ugm-3,23,R,ugm-3,31,R,ugm-3
08-01-2011,21:00,3,R,ugm-3,19,R,ugm-3,23,R,ugm-3
08-01-2011,22:00,3,R,ugm-3,13,R,ugm-3,17,R,ugm-3
08-01-2011,23:00,3,R,ugm-3,13,R,ugm-3,17,R,ugm-3
08-01-2011,24:00,5,R,ugm-3,13,R,ugm-3,21,R,ugm-3
09-01-2011,01:00,3,R,ugm-3,8,R,ugm-3,11,R,ugm-3
09-01-2011,02:00,1,R,ugm-3,8,R,ugm-3,10,R,ugm-3
09-01-2011,03:00,1,R,ugm-3,10,R,ugm-3,11,R,ugm-3
09-01-2011,04:00,1,R,ugm-3,6,R,ugm-3,8,R,ugm-3
09-01-2011,05:00,1,R,ugm-3,6,R,ugm-3,8,R,ugm-3
09-01-2011,06:00,1,R,ugm-3,8,R,ugm-3,10,R,ugm-3
09-01-2011,07:00,1,R,ugm-3,11,R,ugm-3,13,R,ugm-3
09-01-2011,08:00,1,R,ugm-3,11,R,ugm-3,13,R,ugm-3
09-01-2011,09:00,3,R,ugm-3,13,R,ugm-3,17,R,ugm-3
09-01-2011,10:00,4,R,ugm-3,15,R,ugm-3,21,R,ugm-3
09-01-2011,11:00,5,R,ugm-3,21,R,ugm-3,29,R,ugm-3
09-01-2011,12:00,8,R,ugm-3,27,R,ugm-3,38,R,ugm-3
09-01-2011,13:00,10,R,ugm-3,31,R,ugm-3,46,R,ugm-3
09-01-2011,14:00,10,R,ugm-3,32,R,ugm-3,48,R,ugm-3
09-01-2011,15:00,11,R,ugm-3,36,R,ugm-3,53,R,ugm-3
09-01-2011,16:00,13,R,ugm-3,44,R,ugm-3,63,R,ugm-3
09-01-2011,17:00,30,R,ugm-3,74,R,ugm-3,120,R,ugm-3
09-01-2011,18:00,25,R,ugm-3,67,R,ugm-3,105,R,ugm-3
09-01-2011,19:00,23,R,ugm-3,59,R,ugm-3,94,R,ugm-3
09-01-2011,20:00,41,R,ugm-3,78,R,ugm-3,141,R,ugm-3
09-01-2011,21:00,15,R,ugm-3,53,R,ugm-3,76,R,ugm-3
09-01-2011,22:00,15,R,ugm-3,53,R,ugm-3,76,R,ugm-3
09-01-2011,23:00,6,R,ugm-3,40,R,ugm-3,50,R,ugm-3
09-01-2011,24:00,5,R,ugm-3,31,R,ugm-3,38,R,ugm-3
10-01-2011,01:00,19,R,ugm-3,42,R,ugm-3,71,R,ugm-3
10-01-2011,02:00,5,R,ugm-3,32,R,ugm-3,40,R,ugm-3
10-01-2011,03:00,9,R,ugm-3,42,R,ugm-3,55,R,ugm-3
10-01-2011,04:00,10,R,ugm-3,36,R,ugm-3,52,R,ugm-3
10-01-2011,05:00,5,R,ugm-3,40,R,ugm-3,48,R,ugm-3
10-01-2011,06:00,16,R,ugm-3,44,R,ugm-3,69,R,ugm-3
10-01-2011,07:00,11,R,ugm-3,48,R,ugm-3,65,R,ugm-3
10-01-2011,08:00,25,R,ugm-3,61,R,ugm-3,99,R,ugm-3
10-01-2011,09:00,30,R,ugm-3,61,R,ugm-3,107,R,ugm-3
10-01-2011,10:00,29,R,ugm-3,55,R,ugm-3,99,R,ugm-3
10-01-2011,11:00,20,R,ugm-3,46,R,ugm-3,76,R,ugm-3
10-01-2011,12:00,21,R,ugm-3,48,R,ugm-3,80,R,ugm-3
10-01-2011,13:00,20,R,ugm-3,46,R,ugm-3,76,R,ugm-3
10-01-2011,14:00,23,R,ugm-3,50,R,ugm-3,84,R,ugm-3
10-01-2011,15:00,21,R,ugm-3,55,R,ugm-3,88,R,ugm-3
10-01-2011,16:00,19,R,ugm-3,52,R,ugm-3,80,R,ugm-3
10-01-2011,17:00,21,R,ugm-3,61,R,ugm-3,94,R,ugm-3
10-01-2011,18:00,14,R,ugm-3,50,R,ugm-3,71,R,ugm-3
10-01-2011,19:00,9,R,ugm-3,36,R,ugm-3,50,R,ugm-3
10-01-2011,20:00,8,R,ugm-3,34,R,ugm-3,46,R,ugm-3
10-01-2011,21:00,6,R,ugm-3,29,R,ugm-3,38,R,ugm-3
10-01-2011,22:00,4,R,ugm-3,23,R,ugm-3,29,R,ugm-3
10-01-2011,23:00,3,R,ugm-3,17,R,ugm-3,21,R,ugm-3
10-01-2011,24:00,1,R,ugm-3,15,R,ugm-3,17,R,ugm-3
11-01-2011,01:00,1,R,ugm-3,15,R,ugm-3,17,R,ugm-3
11-01-2011,02:00,3,R,ugm-3,21,R,ugm-3,25,R,ugm-3
11-01-2011,03:00,3,R,ugm-3,19,R,ugm-3,23,R,ugm-3
11-01-2011,04:00,4,R,ugm-3,23,R,ugm-3,29,R,ugm-3
11-01-2011,05:00,5,R,ugm-3,31,R,ugm-3,38,R,ugm-3
11-01-2011,06:00,19,R,ugm-3,40,R,ugm-3,69,R,ugm-3
11-01-2011,07:00,45,R,ugm-3,71,R,ugm-3,139,R,ugm-3
11-01-2011,08:00,30,R,ugm-3,53,R,ugm-3,99,R,ugm-3
11-01-2011,09:00,25,R,ugm-3,44,R,ugm-3,82,R,ugm-3
11-01-2011,10:00,21,R,ugm-3,42,R,ugm-3,74,R,ugm-3
11-01-2011,11:00,16,R,ugm-3,40,R,ugm-3,65,R,ugm-3
11-01-2011,12:00,6,R,ugm-3,27,R,ugm-3,36,R,ugm-3
11-01-2011,13:00,8,R,ugm-3,31,R,ugm-3,42,R,ugm-3
11-01-2011,14:00,16,R,ugm-3,48,R,ugm-3,73,R,ugm-3
11-01-2011,15:00,6,R,ugm-3,31,R,ugm-3,40,R,ugm-3
11-01-2011,16:00,16,R,ugm-3,53,R,ugm-3,78,R,ugm-3
11-01-2011,17:00,25,R,ugm-3,65,R,ugm-3,103,R,ugm-3
11-01-2011,18:00,48,R,ugm-3,84,R,ugm-3,157,R,ugm-3
11-01-2011,19:00,60,R,ugm-3,90,R,ugm-3,181,R,ugm-3
11-01-2011,20:00,83,R,ugm-3,94,R,ugm-3,220,R,ugm-3
11-01-2011,21:00,128,R,ugm-3,99,R,ugm-3,294,R,ugm-3
11-01-2011,22:00,70,R,ugm-3,74,R,ugm-3,181,R,ugm-3
11-01-2011,23:00,63,R,ugm-3,73,R,ugm-3,168,R,ugm-3
11-01-2011,24:00,54,R,ugm-3,63,R,ugm-3,145,R,ugm-3
12-01-2011,01:00,16,R,ugm-3,50,R,ugm-3,74,R,ugm-3
12-01-2011,02:00,9,R,ugm-3,50,R,ugm-3,63,R,ugm-3
12-01-2011,03:00,11,R,ugm-3,59,R,ugm-3,76,R,ugm-3
12-01-2011,04:00,9,R,ugm-3,55,R,ugm-3,69,R,ugm-3
12-01-2011,05:00,5,R,ugm-3,29,R,ugm-3,36,R,ugm-3
12-01-2011,06:00,34,R,ugm-3,46,R,ugm-3,97,R,ugm-3
12-01-2011,07:00,33,R,ugm-3,59,R,ugm-3,109,R,ugm-3
12-01-2011,08:00,45,R,ugm-3,71,R,ugm-3,139,R,ugm-3
12-01-2011,09:00,40,R,ugm-3,63,R,ugm-3,124,R,ugm-3
12-01-2011,10:00,36,R,ugm-3,55,R,ugm-3,111,R,ugm-3
12-01-2011,11:00,38,R,ugm-3,53,R,ugm-3,111,R,ugm-3
12-01-2011,12:00,46,R,ugm-3,63,R,ugm-3,134,R,ugm-3
12-01-2011,13:00,48,R,ugm-3,67,R,ugm-3,139,R,ugm-3
12-01-2011,14:00,51,R,ugm-3,74,R,ugm-3,153,R,ugm-3
12-01-2011,15:00,73,R,ugm-3,90,R,ugm-3,201,R,ugm-3
12-01-2011,16:00,56,R,ugm-3,80,R,ugm-3,166,R,ugm-3
12-01-2011,17:00,56,R,ugm-3,88,R,ugm-3,174,R,ugm-3
12-01-2011,18:00,55,R,ugm-3,80,R,ugm-3,164,R,ugm-3
12-01-2011,19:00,40,R,ugm-3,71,R,ugm-3,132,R,ugm-3
12-01-2011,20:00,38,R,ugm-3,71,R,ugm-3,128,R,ugm-3
12-01-2011,21:00,35,R,ugm-3,67,R,ugm-3,120,R,ugm-3
12-01-2011,22:00,24,R,ugm-3,61,R,ugm-3,97,R,ugm-3
12-01-2011,23:00,16,R,ugm-3,53,R,ugm-3,78,R,ugm-3
12-01-2011,24:00,8,R,ugm-3,42,R,ugm-3,53,R,ugm-3
13-01-2011,01:00,3,R,ugm-3,32,R,ugm-3,36,R,ugm-3
13-01-2011,02:00,5,R,ugm-3,31,R,ugm-3,38,R,ugm-3
13-01-2011,03:00,8,R,ugm-3,32,R,ugm-3,44,R,ugm-3
13-01-2011,04:00,4,R,ugm-3,25,R,ugm-3,31,R,ugm-3
13-01-2011,05:00,8,R,ugm-3,23,R,ugm-3,34,R,ugm-3
13-01-2011,06:00,14,R,ugm-3,27,R,ugm-3,48,R,ugm-3
13-01-2011,07:00,30,R,ugm-3,46,R,ugm-3,92,R,ugm-3
13-01-2011,08:00,34,R,ugm-3,53,R,ugm-3,105,R,ugm-3
13-01-2011,09:00,30,R,ugm-3,55,R,ugm-3,101,R,ugm-3
13-01-2011,10:00,38,R,ugm-3,65,R,ugm-3,122,R,ugm-3
13-01-2011,11:00,34,R,ugm-3,59,R,ugm-3,111,R,ugm-3
13-01-2011,12:00,31,R,ugm-3,55,R,ugm-3,103,R,ugm-3
13-01-2011,13:00,25,R,ugm-3,52,R,ugm-3,90,R,ugm-3
13-01-2011,14:00,28,R,ugm-3,52,R,ugm-3,94,R,ugm-3
13-01-2011,15:00,26,R,ugm-3,52,R,ugm-3,92,R,ugm-3
13-01-2011,16:00,31,R,ugm-3,65,R,ugm-3,113,R,ugm-3
13-01-2011,17:00,35,R,ugm-3,80,R,ugm-3,134,R,ugm-3
13-01-2011,18:00,35,R,ugm-3,82,R,ugm-3,136,R,ugm-3
13-01-2011,19:00,9,R,ugm-3,57,R,ugm-3,71,R,ugm-3
13-01-2011,20:00,6,R,ugm-3,53,R,ugm-3,63,R,ugm-3
13-01-2011,21:00,10,R,ugm-3,53,R,ugm-3,69,R,ugm-3
13-01-2011,22:00,8,R,ugm-3,55,R,ugm-3,67,R,ugm-3
13-01-2011,23:00,6,R,ugm-3,52,R,ugm-3,61,R,ugm-3
13-01-2011,24:00,6,R,ugm-3,46,R,ugm-3,55,R,ugm-3
14-01-2011,01:00,5,R,ugm-3,44,R,ugm-3,52,R,ugm-3
14-01-2011,02:00,3,R,ugm-3,34,R,ugm-3,38,R,ugm-3
14-01-2011,03:00,4,R,ugm-3,36,R,ugm-3,42,R,ugm-3
14-01-2011,04:00,9,R,ugm-3,40,R,ugm-3,53,R,ugm-3
14-01-2011,05:00,11,R,ugm-3,34,R,ugm-3,52,R,ugm-3
14-01-2011,06:00,14,R,ugm-3,32,R,ugm-3,53,R,ugm-3
14-01-2011,07:00,13,R,ugm-3,40,R,ugm-3,59,R,ugm-3
14-01-2011,08:00,18,R,ugm-3,46,R,ugm-3,73,R,ugm-3
14-01-2011,09:00,19,R,ugm-3,48,R,ugm-3,76,R,ugm-3
14-01-2011,10:00,16,R,ugm-3,48,R,ugm-3,73,R,ugm-3
14-01-2011,11:00,20,R,ugm-3,52,R,ugm-3,82,R,ugm-3
14-01-2011,12:00,23,R,ugm-3,57,R,ugm-3,92,R,ugm-3
14-01-2011,13:00,18,R,ugm-3,42,R,ugm-3,69,R,ugm-3
14-01-2011,14:00,19,R,ugm-3,44,R,ugm-3,73,R,ugm-3
14-01-2011,15:00,20,R,ugm-3,52,R,ugm-3,82,R,ugm-3
14-01-2011,16:00,20,R,ugm-3,59,R,ugm-3,90,R,ugm-3
14-01-2011,17:00,16,R,ugm-3,55,R,ugm-3,80,R,ugm-3
14-01-2011,18:00,14,R,ugm-3,52,R,ugm-3,73,R,ugm-3
14-01-2011,19:00,10,R,ugm-3,38,R,ugm-3,53,R,ugm-3
14-01-2011,20:00,10,R,ugm-3,32,R,ugm-3,48,R,ugm-3
14-01-2011,21:00,10,R,ugm-3,36,R,ugm-3,52,R,ugm-3
14-01-2011,22:00,10,R,ugm-3,40,R,ugm-3,55,R,ugm-3
14-01-2011,23:00,5,R,ugm-3,32,R,ugm-3,40,R,ugm-3
14-01-2011,24:00,4,R,ugm-3,25,R,ugm-3,31,R,ugm-3
15-01-2011,01:00,3,R,ugm-3,17,R,ugm-3,21,R,ugm-3
15-01-2011,02:00,1,R,ugm-3,19,R,ugm-3,21,R,ugm-3
15-01-2011,03:00,3,R,ugm-3,17,R,ugm-3,21,R,ugm-3
15-01-2011,04:00,1,R,ugm-3,21,R,ugm-3,23,R,ugm-3
15-01-2011,05:00,4,R,ugm-3,25,R,ugm-3,31,R,ugm-3
15-01-2011,06:00,5,R,ugm-3,23,R,ugm-3,31,R,ugm-3
15-01-2011,07:00,4,R,ugm-3,17,R,ugm-3,23,R,ugm-3
15-01-2011,08:00,3,R,ugm-3,21,R,ugm-3,25,R,ugm-3
15-01-2011,09:00,4,R,ugm-3,27,R,ugm-3,32,R,ugm-3
15-01-2011,10:00,4,R,ugm-3,25,R,ugm-3,31,R,ugm-3
15-01-2011,11:00,4,R,ugm-3,21,R,ugm-3,27,R,ugm-3
15-01-2011,12:00,5,R,ugm-3,27,R,ugm-3,34,R,ugm-3
15-01-2011,13:00,4,R,ugm-3,23,R,ugm-3,29,R,ugm-3
15-01-2011,14:00,4,R,ugm-3,19,R,ugm-3,25,R,ugm-3
15-01-2011,15:00,4,R,ugm-3,17,R,ugm-3,23,R,ugm-3
15-01-2011,16:00,3,R,ugm-3,17,R,ugm-3,21,R,ugm-3
15-01-2011,17:00,3,R,ugm-3,19,R,ugm-3,23,R,ugm-3
15-01-2011,18:00,4,R,ugm-3,21,R,ugm-3,27,R,ugm-3
15-01-2011,19:00,3,R,ugm-3,17,R,ugm-3,21,R,ugm-3
15-01-2011,20:00,1,R,ugm-3,13,R,ugm-3,15,R,ugm-3
15-01-2011,21:00,1,R,ugm-3,11,R,ugm-3,13,R,ugm-3
15-01-2011,22:00,1,R,ugm-3,10,R,ugm-3,11,R,ugm-3
15-01-2011,23:00,1,R,ugm-3,8,R,ugm-3,10,R,ugm-3
15-01-2011,24:00,0,R,ugm-3,6,R,ugm-3,6,R,ugm-3
16-01-2011,01:00,0,R,ugm-3,8,R,ugm-3,8,R,ugm-3
16-01-2011,02:00,0,R,ugm-3,6,R,ugm-3,6,R,ugm-3
16-01-2011,03:00,0,R,ugm-3,8,R,ugm-3,8,R,ugm-3
16-01-2011,04:00,0,R,ugm-3,10,R,ugm-3,10,R,ugm-3
16-01-2011,05:00,0,R,ugm-3,10,R,ugm-3,10,R,ugm-3
16-01-2011,06:00,0,R,ugm-3,10,R,ugm-3,10,R,ugm-3
16-01-2011,07:00,0,R,ugm-3,13,R,ugm-3,13,R,ugm-3
16-01-2011,08:00,1,R,ugm-3,15,R,ugm-3,17,R,ugm-3
16-01-2011,09:00,1,R,ugm-3,15,R,ugm-3,17,R,ugm-3
16-01-2011,10:00,3,R,ugm-3,19,R,ugm-3,23,R,ugm-3
16-01-2011,11:00,3,R,ugm-3,21,R,ugm-3,25,R,ugm-3
16-01-2011,12:00,5,R,ugm-3,21,R,ugm-3,29,R,ugm-3
16-01-2011,13:00,6,R,ugm-3,25,R,ugm-3,34,R,ugm-3
16-01-2011,14:00,5,R,ugm-3,23,R,ugm-3,31,R,ugm-3
16-01-2011,15:00,8,R,ugm-3,36,R,ugm-3,48,R,ugm-3
16-01-2011,16:00,19,R,ugm-3,73,R,ugm-3,101,R,ugm-3
16-01-2011,17:00,14,R,ugm-3,65,R,ugm-3,86,R,ugm-3
16-01-2011,18:00,9,R,ugm-3,48,R,ugm-3,61,R,ugm-3
16-01-2011,19:00,6,R,ugm-3,46,R,ugm-3,55,R,ugm-3
16-01-2011,20:00,8,R,ugm-3,50,R,ugm-3,61,R,ugm-3
16-01-2011,21:00,6,R,ugm-3,31,R,ugm-3,40,R,ugm-3
16-01-2011,22:00,5,R,ugm-3,31,R,ugm-3,38,R,ugm-3
16-01-2011,23:00,4,R,ugm-3,32,R,ugm-3,38,R,ugm-3
16-01-2011,24:00,1,R,ugm-3,29,R,ugm-3,31,R,ugm-3
17-01-2011,01:00,1,R,ugm-3,21,R,ugm-3,23,R,ugm-3
17-01-2011,02:00,0,R,ugm-3,19,R,ugm-3,19,R,ugm-3
17-01-2011,03:00,3,R,ugm-3,15,R,ugm-3,19,R,ugm-3
17-01-2011,04:00,3,R,ugm-3,25,R,ugm-3,29,R,ugm-3
17-01-2011,05:00,11,R,ugm-3,40,R,ugm-3,57,R,ugm-3
17-01-2011,06:00,59,R,ugm-3,69,R,ugm-3,159,R,ugm-3
17-01-2011,07:00,86,R,ugm-3,86,R,ugm-3,218,R,ugm-3
17-01-2011,08:00,123,R,ugm-3,99,R,ugm-3,287,R,ugm-3
17-01-2011,09:00,139,R,ugm-3,107,R,ugm-3,319,R,ugm-3
17-01-2011,10:00,130,R,ugm-3,96,R,ugm-3,294,R,ugm-3
17-01-2011,11:00,76,R,ugm-3,74,R,ugm-3,191,R,ugm-3
17-01-2011,12:00,101,R,ugm-3,78,R,ugm-3,233,R,ugm-3
17-01-2011,13:00,96,R,ugm-3,82,R,ugm-3,229,R,ugm-3
17-01-2011,14:00,14,R,ugm-3,46,R,ugm-3,67,R,ugm-3
17-01-2011,15:00,16,R,ugm-3,55,R,ugm-3,80,R,ugm-3
17-01-2011,16:00,26,R,ugm-3,71,R,ugm-3,111,R,ugm-3
17-01-2011,17:00,71,R,ugm-3,101,R,ugm-3,210,R,ugm-3
17-01-2011,18:00,121,R,ugm-3,115,R,ugm-3,300,R,ugm-3
17-01-2011,19:00,114,R,ugm-3,113,R,ugm-3,287,R,ugm-3
17-01-2011,20:00,166,R,ugm-3,126,R,ugm-3,380,R,ugm-3
17-01-2011,21:00,226,R,ugm-3,126,R,ugm-3,472,R,ugm-3
17-01-2011,22:00,166,R,ugm-3,111,R,ugm-3,365,R,ugm-3
17-01-2011,23:00,308,R,ugm-3,126,R,ugm-3,596,R,ugm-3
17-01-2011,24:00,218,R,ugm-3,107,R,ugm-3,439,R,ugm-3
18-01-2011,01:00,113,R,ugm-3,88,R,ugm-3,260,R,ugm-3
18-01-2011,02:00,66,R,ugm-3,71,R,ugm-3,172,R,ugm-3
18-01-2011,03:00,60,R,ugm-3,69,R,ugm-3,160,R,ugm-3
18-01-2011,04:00,126,R,ugm-3,74,R,ugm-3,267,R,ugm-3
18-01-2011,05:00,179,R,ugm-3,82,R,ugm-3,355,R,ugm-3
18-01-2011,06:00,190,R,ugm-3,71,R,ugm-3,361,R,ugm-3
18-01-2011,07:00,213,R,ugm-3,96,R,ugm-3,420,R,ugm-3
18-01-2011,08:00,131,R,ugm-3,111,R,ugm-3,311,R,ugm-3
18-01-2011,09:00,99,R,ugm-3,105,R,ugm-3,256,R,ugm-3
18-01-2011,10:00,79,R,ugm-3,90,R,ugm-3,210,R,ugm-3
18-01-2011,11:00,29,R,ugm-3,59,R,ugm-3,103,R,ugm-3
18-01-2011,12:00,23,R,ugm-3,53,R,ugm-3,88,R,ugm-3
18-01-2011,13:00,23,R,ugm-3,52,R,ugm-3,86,R,ugm-3
18-01-2011,14:00,21,R,ugm-3,50,R,ugm-3,82,R,ugm-3
18-01-2011,15:00,19,R,ugm-3,52,R,ugm-3,80,R,ugm-3
18-01-2011,16:00,20,R,ugm-3,57,R,ugm-3,88,R,ugm-3
18-01-2011,17:00,29,R,ugm-3,74,R,ugm-3,118,R,ugm-3
18-01-2011,18:00,34,R,ugm-3,80,R,ugm-3,132,R,ugm-3
18-01-2011,19:00,30,R,ugm-3,80,R,ugm-3,126,R,ugm-3
18-01-2011,20:00,15,R,ugm-3,59,R,ugm-3,82,R,ugm-3
18-01-2011,21:00,9,R,ugm-3,46,R,ugm-3,59,R,ugm-3
18-01-2011,22:00,6,R,ugm-3,44,R,ugm-3,53,R,ugm-3
18-01-2011,23:00,8,R,ugm-3,42,R,ugm-3,53,R,ugm-3
18-01-2011,24:00,4,R,ugm-3,31,R,ugm-3,36,R,ugm-3
19-01-2011,01:00,3,R,ugm-3,29,R,ugm-3,32,R,ugm-3
19-01-2011,02:00,8,R,ugm-3,44,R,ugm-3,55,R,ugm-3
19-01-2011,03:00,5,R,ugm-3,34,R,ugm-3,42,R,ugm-3
19-01-2011,04:00,3,R,ugm-3,29,R,ugm-3,32,R,ugm-3
19-01-2011,05:00,6,R,ugm-3,31,R,ugm-3,40,R,ugm-3
19-01-2011,06:00,10,R,ugm-3,42,R,ugm-3,57,R,ugm-3
19-01-2011,07:00,34,R,ugm-3,71,R,ugm-3,122,R,ugm-3
19-01-2011,08:00,79,R,ugm-3,101,R,ugm-3,222,R,ugm-3
19-01-2011,09:00,153,R,ugm-3,126,R,ugm-3,359,R,ugm-3
19-01-2011,10:00,98,R,ugm-3,103,R,ugm-3,252,R,ugm-3
19-01-2011,11:00,25,R,ugm-3,65,R,ugm-3,103,R,ugm-3
19-01-2011,12:00,16,R,ugm-3,48,R,ugm-3,73,R,ugm-3
19-01-2011,13:00,18,R,ugm-3,50,R,ugm-3,76,R,ugm-3
19-01-2011,14:00,18,R,ugm-3,52,R,ugm-3,78,R,ugm-3
19-01-2011,15:00,20,R,ugm-3,57,R,ugm-3,88,R,ugm-3
19-01-2011,16:00,23,R,ugm-3,69,R,ugm-3,103,R,ugm-3
19-01-2011,17:00,45,R,ugm-3,90,R,ugm-3,159,R,ugm-3
19-01-2011,18:00,61,R,ugm-3,96,R,ugm-3,189,R,ugm-3
19-01-2011,19:00,71,R,ugm-3,101,R,ugm-3,210,R,ugm-3
19-01-2011,20:00,76,R,ugm-3,103,R,ugm-3,220,R,ugm-3
19-01-2011,21:00,64,R,ugm-3,88,R,ugm-3,185,R,ugm-3
19-01-2011,22:00,54,R,ugm-3,84,R,ugm-3,166,R,ugm-3
19-01-2011,23:00,41,R,ugm-3,78,R,ugm-3,141,R,ugm-3
19-01-2011,24:00,40,R,ugm-3,78,R,ugm-3,139,R,ugm-3
20-01-2011,01:00,50,R,ugm-3,78,R,ugm-3,155,R,ugm-3
20-01-2011,02:00,33,R,ugm-3,74,R,ugm-3,124,R,ugm-3
20-01-2011,03:00,25,R,ugm-3,67,R,ugm-3,105,R,ugm-3
20-01-2011,04:00,19,R,ugm-3,65,R,ugm-3,94,R,ugm-3
20-01-2011,05:00,31,R,ugm-3,71,R,ugm-3,118,R,ugm-3
20-01-2011,06:00,66,R,ugm-3,80,R,ugm-3,181,R,ugm-3
20-01-2011,07:00,215,R,ugm-3,118,R,ugm-3,447,R,ugm-3
20-01-2011,08:00,261,R,ugm-3,143,R,ugm-3,542,R,ugm-3
20-01-2011,09:00,291,R,ugm-3,155,R,ugm-3,600,R,ugm-3
20-01-2011,10:00,238,R,ugm-3,141,R,ugm-3,504,R,ugm-3
20-01-2011,11:00,91,R,ugm-3,97,R,ugm-3,237,R,ugm-3
20-01-2011,12:00,14,R,ugm-3,42,R,ugm-3,63,R,ugm-3
20-01-2011,13:00,10,R,ugm-3,36,R,ugm-3,52,R,ugm-3
20-01-2011,14:00,9,R,ugm-3,40,R,ugm-3,53,R,ugm-3
20-01-2011,15:00,10,R,ugm-3,48,R,ugm-3,63,R,ugm-3
20-01-2011,16:00,10,R,ugm-3,59,R,ugm-3,74,R,ugm-3
20-01-2011,17:00,68,R,ugm-3,105,R,ugm-3,208,R,ugm-3
20-01-2011,18:00,228,R,ugm-3,160,R,ugm-3,508,R,ugm-3